| time (UTC) | temp F | wind direction | speed MPH | gust MPH | rain 1hr in | rain 24hr in | rain mn in | humidity % | barometer mb |
| 20260831005702 | 80 | 236 | 0.0 | 0.0 | 0.00 | 0.00 | 0.00 | 74 | 1007.3 |
| 20260831005202 | 80 | 209 | 0.0 | 0.0 | 0.00 | 0.00 | 0.00 | 74 | 1007.3 |
| 20260831004703 | 80 | 209 | 0.0 | 0.0 | 0.00 | 0.00 | 0.00 | 74 | 1007.3 |
| 20260831003702 | 81 | 218 | 0.0 | 0.0 | 0.00 | 0.00 | 0.00 | 74 | 1007.3 |
| 20260831003203 | 81 | 229 | 0.0 | 0.0 | 0.00 | 0.00 | 0.00 | 74 | 1007.2 |
| 20260831001203 | 82 | 212 | 0.0 | 0.0 | 0.00 | 0.00 | 0.00 | 75 | 1007.0 |
| 20260831000703 | 82 | 211 | 0.0 | 0.0 | 0.00 | 0.00 | 0.00 | 75 | 1007.0 |
| 20260831000203 | 82 | 212 | 0.0 | 0.0 | 0.00 | 0.00 | 0.00 | 76 | 1007.0 |
| 20260830235704 | 82 | 212 | 0.0 | 0.0 | 0.00 | 0.00 | 0.00 | 76 | 1007.0 |
| 20260830235203 | 82 | 211 | 0.0 | 0.0 | 0.00 | 0.00 | 0.00 | 76 | 1007.0 |
| 20260830234702 | 82 | 216 | 0.0 | 0.0 | 0.00 | 0.00 | 0.00 | 76 | 1006.9 |
| 20260830234203 | 82 | 315 | 0.0 | 0.0 | 0.00 | 0.00 | 0.00 | 77 | 1006.8 |
| 20260830233702 | 82 | 232 | 0.0 | 0.0 | 0.00 | 0.00 | 0.00 | 77 | 1006.9 |
| 20260830233202 | 82 | 181 | 0.0 | 0.0 | 0.00 | 0.00 | 0.00 | 79 | 1006.9 |
| 20260830232202 | 83 | 68 | 0.0 | 0.0 | 0.00 | 0.00 | 0.00 | 80 | 1007.0 |
| 20260830231703 | 83 | 188 | 0.0 | 0.0 | 0.00 | 0.00 | 0.00 | 80 | 1006.9 |
| 20260830231203 | 83 | 121 | 0.0 | 0.0 | 0.00 | 0.00 | 0.00 | 80 | 1006.9 |
| 20260830230203 | 82 | 173 | 0.0 | 0.0 | 0.00 | 0.00 | 0.00 | 79 | 1007.0 |
| 20260830225703 | 83 | 175 | 0.0 | 0.0 | 0.00 | 0.00 | 0.00 | 79 | 1007.1 |
| 20260830225202 | 83 | 163 | 0.0 | 0.0 | 0.00 | 0.00 | 0.00 | 79 | 1007.0 |
| 20260830224703 | 83 | 185 | 0.0 | 0.0 | 0.00 | 0.00 | 0.00 | 79 | 1007.0 |
| 20260830223203 | 83 | 102 | 0.0 | 0.0 | 0.00 | 0.00 | 0.00 | 80 | 1006.9 |
| 20260830222202 | 82 | 109 | 0.0 | 0.0 | 0.00 | 0.00 | 0.00 | 79 | 1006.9 |
| 20260830221703 | 82 | 272 | 0.0 | 0.0 | 0.00 | 0.00 | 0.00 | 79 | 1007.0 |
| 20260830221203 | 82 | 273 | 0.0 | 0.0 | 0.00 | 0.00 | 0.00 | 78 | 1007.1 |
| 20260830220203 | 83 | 41 | 0.0 | 0.0 | 0.00 | 0.00 | 0.00 | 78 | 1007.0 |
| 20260830215703 | 83 | 174 | 0.0 | 0.0 | 0.00 | 0.00 | 0.00 | 78 | 1007.0 |
| 20260830215203 | 83 | 144 | 0.0 | 0.0 | 0.00 | 0.00 | 0.00 | 77 | 1007.1 |
| 20260830214703 | 83 | 152 | 0.0 | 0.0 | 0.00 | 0.00 | 0.00 | 77 | 1007.1 |
| 20260830214203 | 83 | 267 | 0.0 | 0.0 | 0.00 | 0.00 | 0.00 | 77 | 1007.1 |
| 20260830213702 | 83 | 120 | 0.0 | 0.0 | 0.00 | 0.00 | 0.00 | 77 | 1007.2 |
| 20260830213202 | 83 | 96 | 0.0 | 0.0 | 0.00 | 0.00 | 0.00 | 77 | 1007.2 |
| 20260830212703 | 83 | 83 | 0.0 | 0.0 | 0.00 | 0.00 | 0.00 | 76 | 1007.3 |
| 20260830211702 | 83 | 258 | 0.0 | 0.0 | 0.00 | 0.00 | 0.00 | 76 | 1007.3 |
| 20260830210703 | 83 | 144 | 0.0 | 0.0 | 0.00 | 0.00 | 0.00 | 76 | 1007.5 |
| 20260830210203 | 83 | 125 | 0.0 | 0.0 | 0.00 | 0.00 | 0.00 | 76 | 1007.6 |
| 20260830205703 | 83 | 127 | 0.0 | 0.0 | 0.00 | 0.00 | 0.00 | 76 | 1007.6 |
| 20260830205202 | 83 | 193 | 0.0 | 0.0 | 0.00 | 0.00 | 0.00 | 76 | 1007.6 |
| 20260830204703 | 84 | 241 | 0.0 | 0.0 | 0.00 | 0.00 | 0.00 | 75 | 1007.6 |
| 20260830204203 | 84 | 108 | 0.0 | 0.0 | 0.00 | 0.00 | 0.00 | 74 | 1007.6 |
| 20260830203703 | 84 | 134 | 0.0 | 0.0 | 0.00 | 0.00 | 0.00 | 75 | 1007.6 |
| 20260830203203 | 84 | 162 | 0.0 | 0.0 | 0.00 | 0.00 | 0.00 | 76 | 1007.7 |
| 20260830202702 | 85 | 140 | 0.0 | 0.0 | 0.00 | 0.00 | 0.00 | 78 | 1007.7 |
| 20260830202203 | 84 | 172 | 0.0 | 0.0 | 0.00 | 0.00 | 0.00 | 77 | 1007.8 |
| 20260830201703 | 85 | 130 | 0.0 | 0.0 | 0.00 | 0.00 | 0.00 | 79 | 1007.8 |
| 20260830201203 | 85 | 261 | 0.0 | 0.0 | 0.00 | 0.00 | 0.00 | 80 | 1007.9 |
| 20260830200703 | 84 | 144 | 0.0 | 0.0 | 0.00 | 0.00 | 0.00 | 81 | 1007.7 |
| 20260830200203 | 84 | 160 | 0.0 | 0.0 | 0.00 | 0.00 | 0.00 | 82 | 1007.9 |
| 20260830195703 | 84 | 184 | 0.0 | 0.0 | 0.00 | 0.00 | 0.00 | 85 | 1007.7 |
| 20260830195203 | 84 | 161 | 0.0 | 0.0 | 0.00 | 0.00 | 0.00 | 85 | 1007.6 |
| 20260830194703 | 83 | 217 | 0.0 | 0.0 | 0.00 | 0.00 | 0.00 | 88 | 1007.7 |
| 20260830194203 | 83 | 102 | 0.0 | 0.0 | 0.00 | 0.00 | 0.00 | 89 | 1007.8 |
| 20260830193702 | 83 | 106 | 0.0 | 0.0 | 0.00 | 0.00 | 0.00 | 89 | 1007.8 |
| 20260830193203 | 83 | 87 | 0.0 | 0.0 | 0.00 | 0.00 | 0.00 | 92 | 1008.0 |
| 20260830192703 | 83 | 91 | 0.0 | 0.0 | 0.00 | 0.00 | 0.00 | 93 | 1007.9 |
| 20260830192203 | 82 | 73 | 0.0 | 0.0 | 0.00 | 0.00 | 0.00 | 94 | 1007.7 |
| 20260830191703 | 82 | 134 | 0.0 | 0.0 | 0.00 | 0.00 | 0.00 | 96 | 1007.6 |
| 20260830191203 | 82 | 215 | 0.0 | 0.0 | 0.00 | 0.00 | 0.00 | 97 | 1008.0 |
| 20260830190704 | 82 | 192 | 0.0 | 0.0 | 0.00 | 0.00 | 0.00 | 98 | 1008.1 |
| 20260830190203 | 81 | 22 | 0.0 | 0.0 | 0.00 | 0.00 | 0.00 | 100 | 1008.1 |
| 20260830185703 | 81 | 94 | 0.0 | 0.0 | 0.00 | 0.00 | 0.00 | 100 | 1008.0 |
| 20260830185204 | 81 | 117 | 0.0 | 0.0 | 0.00 | 0.00 | 0.00 | 100 | 1008.0 |
| 20260830183703 | 80 | 225 | 0.0 | 0.0 | 0.00 | 0.00 | 0.00 | 100 | 1008.8 |
| 20260830183203 | 80 | 190 | 0.0 | 0.0 | 0.00 | 0.00 | 0.00 | 100 | 1008.6 |
| 20260830182703 | 80 | 214 | 0.0 | 0.0 | 0.00 | 0.00 | 0.00 | 100 | 1008.7 |
| 20260830182204 | 79 | 131 | 0.0 | 0.0 | 0.00 | 0.00 | 0.00 | 100 | 1008.6 |
| 20260830181703 | 79 | 185 | 0.0 | 0.0 | 0.00 | 0.00 | 0.00 | 100 | 1008.4 |
| 20260830181203 | 78 | 109 | 0.0 | 0.0 | 0.00 | 0.00 | 0.00 | 100 | 1008.5 |
| 20260830180203 | 78 | 87 | 0.0 | 0.0 | 0.00 | 0.00 | 0.00 | 100 | 1008.6 |
| 20260830175703 | 77 | 146 | 0.0 | 0.0 | 0.00 | 0.00 | 0.00 | 100 | 1008.6 |
| 20260830175203 | 77 | 36 | 0.0 | 0.0 | 0.00 | 0.00 | 0.00 | 100 | 1008.6 |
| 20260830174703 | 77 | 85 | 0.0 | 0.0 | 0.00 | 0.00 | 0.00 | 100 | 1009.0 |
| 20260830174204 | 76 | 147 | 0.0 | 0.0 | 0.00 | 0.00 | 0.00 | 100 | 1009.0 |
| 20260830172703 | 76 | 157 | 0.0 | 0.0 | 0.00 | 0.00 | 0.00 | 100 | 1009.2 |
| 20260830171703 | 76 | 174 | 0.0 | 0.0 | 0.00 | 0.00 | 0.00 | 100 | 1009.2 |
| 20260830171203 | 76 | 155 | 0.0 | 0.0 | 0.00 | 0.00 | 0.00 | 100 | 1009.3 |
| 20260830170703 | 76 | 126 | 0.0 | 0.0 | 0.00 | 0.00 | 0.00 | 100 | 1009.3 |
| 20260830170203 | 76 | 190 | 0.0 | 0.0 | 0.00 | 0.00 | 0.00 | 100 | 1009.2 |
| 20260830165703 | 76 | 173 | 0.0 | 0.0 | 0.00 | 0.00 | 0.00 | 100 | 1009.2 |
| 20260830165203 | 76 | 111 | 0.0 | 0.0 | 0.00 | 0.00 | 0.00 | 100 | 1009.2 |
| 20260830164703 | 76 | 92 | 0.0 | 0.0 | 0.00 | 0.00 | 0.00 | 100 | 1009.2 |
| 20260830164203 | 76 | 109 | 0.0 | 0.0 | 0.00 | 0.00 | 0.00 | 100 | 1009.2 |
| 20260830163703 | 76 | 111 | 0.0 | 0.0 | 0.00 | 0.00 | 0.00 | 100 | 1009.0 |
| 20260830163203 | 75 | 104 | 0.0 | 0.0 | 0.00 | 0.00 | 0.00 | 100 | 1009.0 |
| 20260830162704 | 75 | 98 | 0.0 | 0.0 | 0.00 | 0.00 | 0.00 | 100 | 1008.9 |
| 20260830162203 | 75 | 98 | 0.0 | 0.0 | 0.00 | 0.00 | 0.00 | 100 | 1008.6 |
| 20260830161203 | 74 | 90 | 0.0 | 0.0 | 0.00 | 0.00 | 0.00 | 100 | 1008.4 |
| 20260830160703 | 74 | 120 | 0.0 | 0.0 | 0.00 | 0.00 | 0.00 | 100 | 1008.4 |
| 20260830160203 | 74 | 120 | 0.0 | 0.0 | 0.00 | 0.00 | 0.00 | 100 | 1008.3 |
| 20260830155704 | 74 | 124 | 0.0 | 0.0 | 0.00 | 0.00 | 0.00 | 100 | 1008.4 |
| 20260830155203 | 74 | 112 | 0.0 | 0.0 | 0.00 | 0.00 | 0.00 | 100 | 1008.3 |
| 20260830154703 | 74 | 123 | 0.0 | 0.0 | 0.00 | 0.00 | 0.00 | 100 | 1008.3 |
| 20260830154203 | 74 | 175 | 0.0 | 0.0 | 0.00 | 0.00 | 0.00 | 100 | 1008.4 |
| 20260830153703 | 74 | 149 | 0.0 | 0.0 | 0.00 | 0.00 | 0.00 | 100 | 1008.6 |
| 20260830153203 | 74 | 155 | 0.0 | 0.0 | 0.00 | 0.00 | 0.00 | 100 | 1008.6 |
| 20260830152703 | 74 | 101 | 0.0 | 0.0 | 0.00 | 0.00 | 0.00 | 100 | 1008.4 |
| 20260830152203 | 73 | 151 | 0.0 | 0.0 | 0.00 | 0.00 | 0.00 | 100 | 1008.4 |
| 20260830151703 | 73 | 152 | 0.0 | 0.0 | 0.00 | 0.00 | 0.00 | 100 | 1008.7 |
| 20260830151203 | 73 | 89 | 0.0 | 0.0 | 0.00 | 0.00 | 0.00 | 100 | 1008.5 |
| 20260830150703 | 72 | 84 | 0.0 | 0.0 | 0.00 | 0.00 | 0.00 | 100 | 1008.5 |
| 20260830150203 | 72 | 82 | 0.0 | 0.0 | 0.00 | 0.00 | 0.00 | 100 | 1008.4 |
| 20260830145703 | 72 | 107 | 0.0 | 0.0 | 0.00 | 0.00 | 0.00 | 100 | 1008.6 |
| 20260830145203 | 71 | 107 | 0.0 | 0.0 | 0.00 | 0.00 | 0.00 | 100 | 1008.5 |
| 20260830144704 | 71 | 109 | 0.0 | 0.0 | 0.00 | 0.00 | 0.00 | 100 | 1008.2 |
| 20260830144203 | 71 | 165 | 0.0 | 0.0 | 0.00 | 0.00 | 0.00 | 100 | 1008.2 |
| 20260830143704 | 71 | 145 | 0.0 | 0.0 | 0.00 | 0.00 | 0.00 | 100 | 1008.3 |
| 20260830143204 | 71 | 144 | 0.0 | 0.0 | 0.00 | 0.00 | 0.00 | 100 | 1008.3 |
| 20260830142703 | 71 | 144 | 0.0 | 0.0 | 0.00 | 0.00 | 0.00 | 100 | 1008.4 |
| 20260830142203 | 70 | 144 | 0.0 | 0.0 | 0.00 | 0.00 | 0.00 | 100 | 1008.4 |
| 20260830141703 | 70 | 152 | 0.0 | 0.0 | 0.00 | 0.00 | 0.00 | 100 | 1008.4 |
| 20260830141203 | 70 | 149 | 0.0 | 0.0 | 0.00 | 0.00 | 0.00 | 100 | 1008.4 |
| 20260830140704 | 70 | 111 | 0.0 | 0.0 | 0.00 | 0.00 | 0.00 | 100 | 1008.4 |
| 20260830140203 | 70 | 93 | 0.0 | 0.0 | 0.00 | 0.00 | 0.00 | 100 | 1008.6 |
| 20260830135703 | 70 | 132 | 0.0 | 0.0 | 0.00 | 0.00 | 0.00 | 100 | 1008.9 |
| 20260830135204 | 70 | 123 | 0.0 | 0.0 | 0.00 | 0.00 | 0.00 | 100 | 1009.0 |
| 20260830134704 | 69 | 123 | 0.0 | 0.0 | 0.00 | 0.00 | 0.00 | 100 | 1009.0 |
| 20260830134203 | 69 | 123 | 0.0 | 0.0 | 0.00 | 0.00 | 0.00 | 100 | 1008.8 |
| 20260830133703 | 69 | 123 | 0.0 | 0.0 | 0.00 | 0.00 | 0.00 | 100 | 1008.7 |
| 20260830133203 | 69 | 123 | 0.0 | 0.0 | 0.00 | 0.00 | 0.00 | 100 | 1008.6 |
| 20260830132703 | 69 | 113 | 0.0 | 0.0 | 0.00 | 0.00 | 0.00 | 100 | 1008.5 |
| 20260830132203 | 69 | 125 | 0.0 | 0.0 | 0.00 | 0.00 | 0.00 | 100 | 1008.5 |
| 20260830131703 | 69 | 125 | 0.0 | 0.0 | 0.00 | 0.00 | 0.00 | 100 | 1008.6 |
| 20260830131203 | 69 | 125 | 0.0 | 0.0 | 0.00 | 0.00 | 0.00 | 100 | 1008.5 |
| 20260830130703 | 69 | 125 | 0.0 | 0.0 | 0.00 | 0.00 | 0.00 | 100 | 1008.5 |
| 20260830130204 | 69 | 101 | 0.0 | 0.0 | 0.00 | 0.00 | 0.00 | 100 | 1008.5 |
| 20260830125703 | 69 | 91 | 0.0 | 0.0 | 0.00 | 0.00 | 0.00 | 100 | 1008.4 |
| 20260830125203 | 68 | 91 | 0.0 | 0.0 | 0.00 | 0.00 | 0.00 | 100 | 1008.3 |
| 20260830124703 | 68 | 91 | 0.0 | 0.0 | 0.00 | 0.00 | 0.00 | 100 | 1008.5 |
| 20260830124204 | 68 | 91 | 0.0 | 0.0 | 0.00 | 0.00 | 0.00 | 100 | 1008.4 |
| 20260830123704 | 68 | 91 | 0.0 | 0.0 | 0.00 | 0.00 | 0.00 | 100 | 1008.5 |
| 20260830122203 | 68 | 91 | 0.0 | 0.0 | 0.00 | 0.00 | 0.00 | 100 | 1008.5 |
| 20260830121703 | 68 | 91 | 0.0 | 0.0 | 0.00 | 0.00 | 0.00 | 100 | 1008.3 |
| 20260830121204 | 68 | 180 | 0.0 | 0.0 | 0.00 | 0.00 | 0.00 | 100 | 1008.4 |
| 20260830120703 | 68 | 180 | 0.0 | 0.0 | 0.00 | 0.00 | 0.00 | 100 | 1008.4 |
| 20260830120203 | 68 | 180 | 0.0 | 0.0 | 0.00 | 0.00 | 0.00 | 100 | 1008.5 |
| 20260830115703 | 68 | 180 | 0.0 | 0.0 | 0.00 | 0.01 | 0.00 | 100 | 1008.4 |
| 20260830115203 | 68 | 180 | 0.0 | 0.0 | 0.00 | 0.02 | 0.00 | 100 | 1008.2 |
| 20260830114703 | 67 | 179 | 0.0 | 0.0 | 0.00 | 0.02 | 0.00 | 100 | 1008.2 |
| 20260830114204 | 67 | 127 | 0.0 | 0.0 | 0.00 | 0.05 | 0.00 | 100 | 1008.0 |
| 20260830112703 | 67 | 127 | 0.0 | 0.0 | 0.00 | 0.08 | 0.00 | 100 | 1008.0 |
| 20260830112203 | 67 | 127 | 0.0 | 0.0 | 0.00 | 0.09 | 0.00 | 100 | 1007.9 |
| 20260830111704 | 67 | 127 | 0.0 | 0.0 | 0.00 | 0.10 | 0.00 | 100 | 1008.0 |
| 20260830111204 | 67 | 127 | 0.0 | 0.0 | 0.00 | 0.10 | 0.00 | 100 | 1008.0 |
| 20260830110203 | 67 | 127 | 0.0 | 0.0 | 0.00 | 0.11 | 0.00 | 100 | 1008.4 |
| 20260830105703 | 68 | 127 | 0.0 | 0.0 | 0.00 | 0.12 | 0.00 | 100 | 1008.5 |
| 20260830105203 | 68 | 127 | 0.0 | 0.0 | 0.00 | 0.14 | 0.00 | 100 | 1008.4 |
| 20260830104703 | 68 | 127 | 0.0 | 0.0 | 0.00 | 0.15 | 0.00 | 100 | 1008.5 |
| 20260830104203 | 68 | 127 | 0.0 | 0.0 | 0.00 | 0.16 | 0.00 | 100 | 1008.6 |
| 20260830103704 | 68 | 127 | 0.0 | 0.0 | 0.00 | 0.17 | 0.00 | 100 | 1008.4 |
| 20260830103203 | 68 | 127 | 0.0 | 0.0 | 0.00 | 0.18 | 0.00 | 100 | 1008.5 |
| 20260830102703 | 68 | 127 | 0.0 | 0.0 | 0.00 | 0.19 | 0.00 | 100 | 1008.4 |
| 20260830102204 | 68 | 127 | 0.0 | 0.0 | 0.00 | 0.20 | 0.00 | 100 | 1008.4 |
| 20260830101703 | 68 | 127 | 0.0 | 0.0 | 0.00 | 0.21 | 0.00 | 100 | 1008.4 |
| 20260830100704 | 68 | 127 | 0.0 | 0.0 | 0.00 | 0.22 | 0.00 | 100 | 1008.7 |
| 20260830100204 | 68 | 127 | 0.0 | 0.0 | 0.00 | 0.23 | 0.00 | 100 | 1008.5 |
| 20260830095203 | 68 | 127 | 0.0 | 0.0 | 0.00 | 0.24 | 0.00 | 100 | 1008.3 |
| 20260830094703 | 68 | 127 | 0.0 | 0.0 | 0.00 | 0.24 | 0.00 | 100 | 1008.1 |
| 20260830094204 | 68 | 127 | 0.0 | 0.0 | 0.00 | 0.25 | 0.00 | 100 | 1008.2 |
| 20260830093704 | 68 | 127 | 0.0 | 0.0 | 0.00 | 0.25 | 0.00 | 100 | 1008.1 |
| 20260830093204 | 68 | 128 | 0.0 | 0.0 | 0.00 | 0.26 | 0.00 | 100 | 1008.0 |
| 20260830092703 | 68 | 128 | 0.0 | 0.0 | 0.00 | 0.28 | 0.00 | 100 | 1007.9 |
| 20260830092204 | 68 | 128 | 0.0 | 0.0 | 0.00 | 0.28 | 0.00 | 100 | 1008.0 |
| 20260830091704 | 68 | 128 | 0.0 | 0.0 | 0.00 | 0.28 | 0.00 | 100 | 1008.1 |
| 20260830091204 | 68 | 128 | 0.0 | 0.0 | 0.00 | 0.29 | 0.00 | 100 | 1008.2 |
| 20260830090704 | 68 | 127 | 0.0 | 0.0 | 0.00 | 0.29 | 0.00 | 100 | 1008.3 |
| 20260830090203 | 68 | 128 | 0.0 | 0.0 | 0.00 | 0.30 | 0.00 | 100 | 1008.4 |
| 20260830085703 | 68 | 128 | 0.0 | 0.0 | 0.00 | 0.30 | 0.00 | 100 | 1008.2 |
| 20260830085203 | 68 | 128 | 0.0 | 0.0 | 0.00 | 0.30 | 0.00 | 100 | 1008.3 |
| 20260830084703 | 68 | 128 | 0.0 | 0.0 | 0.00 | 0.30 | 0.00 | 100 | 1008.1 |
| 20260830084203 | 68 | 128 | 0.0 | 0.0 | 0.00 | 0.30 | 0.00 | 100 | 1008.3 |
| 20260830083703 | 68 | 128 | 0.0 | 0.0 | 0.00 | 0.30 | 0.00 | 100 | 1008.3 |
| 20260830083203 | 68 | 128 | 0.0 | 0.0 | 0.00 | 0.30 | 0.00 | 100 | 1008.4 |
| 20260830082703 | 68 | 128 | 0.0 | 0.0 | 0.00 | 0.30 | 0.00 | 100 | 1008.4 |
| 20260830082203 | 69 | 128 | 0.0 | 0.0 | 0.00 | 0.30 | 0.00 | 100 | 1008.4 |
| 20260830081204 | 69 | 128 | 0.0 | 0.0 | 0.00 | 0.30 | 0.00 | 100 | 1008.3 |
| 20260830080703 | 69 | 128 | 0.0 | 0.0 | 0.00 | 0.30 | 0.00 | 100 | 1008.4 |
| 20260830075704 | 69 | 128 | 0.0 | 0.0 | 0.00 | 0.30 | 0.00 | 100 | 1008.2 |
| 20260830075203 | 69 | 128 | 0.0 | 0.0 | 0.00 | 0.30 | 0.00 | 100 | 1008.4 |
| 20260830074703 | 69 | 128 | 0.0 | 0.0 | 0.00 | 0.30 | 0.00 | 100 | 1008.5 |
| 20260830074201 | 69 | 127 | 0.0 | 0.0 | 0.00 | 0.30 | 0.00 | 100 | 1008.5 |
| 20260830073702 | 69 | 127 | 0.0 | 0.0 | 0.00 | 0.30 | 0.00 | 100 | 1008.7 |
| 20260830072702 | 69 | 128 | 0.0 | 0.0 | 0.00 | 0.30 | 0.00 | 100 | 1009.0 |
| 20260830072201 | 69 | 127 | 0.0 | 0.0 | 0.00 | 0.30 | 0.00 | 100 | 1009.0 |
| 20260830071702 | 69 | 127 | 0.0 | 0.0 | 0.00 | 0.30 | 0.00 | 100 | 1008.7 |
| 20260830071202 | 69 | 127 | 0.0 | 0.0 | 0.00 | 0.30 | 0.00 | 100 | 1008.5 |
| 20260830070702 | 69 | 127 | 0.0 | 0.0 | 0.00 | 0.30 | 0.00 | 100 | 1008.4 |
| 20260830065701 | 69 | 127 | 0.0 | 0.0 | 0.00 | 0.30 | 0.00 | 100 | 1008.9 |
| 20260830065201 | 69 | 128 | 0.0 | 0.0 | 0.00 | 0.30 | 0.00 | 100 | 1008.9 |
| 20260830064701 | 69 | 128 | 0.0 | 0.0 | 0.00 | 0.30 | 0.00 | 100 | 1008.8 |
| 20260830063701 | 70 | 128 | 0.0 | 0.0 | 0.00 | 0.30 | 0.00 | 100 | 1008.8 |
| 20260830063201 | 70 | 128 | 0.0 | 0.0 | 0.00 | 0.30 | 0.00 | 100 | 1008.8 |
| 20260830062702 | 70 | 128 | 0.0 | 0.0 | 0.00 | 0.30 | 0.00 | 100 | 1008.7 |
| 20260830062202 | 70 | 128 | 0.0 | 0.0 | 0.00 | 0.30 | 0.00 | 100 | 1008.8 |
| 20260830061701 | 70 | 128 | 0.0 | 0.0 | 0.00 | 0.30 | 0.00 | 100 | 1009.1 |
| 20260830061202 | 70 | 128 | 0.0 | 0.0 | 0.00 | 0.30 | 0.00 | 100 | 1008.9 |
| 20260830060702 | 70 | 128 | 0.0 | 0.0 | 0.00 | 0.30 | 0.00 | 100 | 1009.0 |
| 20260830060202 | 70 | 128 | 0.0 | 0.0 | 0.00 | 0.30 | 0.00 | 100 | 1009.1 |
| 20260830054702 | 70 | 128 | 0.0 | 0.0 | 0.00 | 0.30 | 0.00 | 100 | 1009.2 |
| 20260830054202 | 70 | 128 | 0.0 | 0.0 | 0.00 | 0.30 | 0.00 | 100 | 1009.3 |
| 20260830053202 | 70 | 128 | 0.0 | 0.0 | 0.00 | 0.30 | 0.00 | 100 | 1009.3 |
| 20260830052702 | 70 | 128 | 0.0 | 0.0 | 0.00 | 0.30 | 0.00 | 100 | 1009.2 |
| 20260830052202 | 70 | 128 | 0.0 | 0.0 | 0.00 | 0.30 | 0.00 | 100 | 1009.2 |
| 20260830051202 | 70 | 128 | 0.0 | 0.0 | 0.00 | 0.30 | 0.00 | 99 | 1009.2 |
| 20260830050701 | 70 | 128 | 0.0 | 0.0 | 0.00 | 0.30 | 0.00 | 99 | 1009.3 |
| 20260830050202 | 70 | 128 | 0.0 | 0.0 | 0.00 | 0.30 | 0.00 | 99 | 1009.3 |
| 20260830045702 | 71 | 128 | 0.0 | 0.0 | 0.00 | 0.30 | 0.30 | 98 | 1009.3 |
| 20260830045202 | 71 | 128 | 0.0 | 0.0 | 0.00 | 0.30 | 0.30 | 98 | 1009.4 |
| 20260830044702 | 71 | 128 | 0.0 | 0.0 | 0.00 | 0.30 | 0.30 | 98 | 1009.4 |
| 20260830044202 | 71 | 128 | 0.0 | 0.0 | 0.00 | 0.30 | 0.30 | 97 | 1009.4 |
| 20260830043701 | 71 | 128 | 0.0 | 0.0 | 0.00 | 0.30 | 0.30 | 97 | 1009.6 |
| 20260830042702 | 71 | 128 | 0.0 | 0.0 | 0.00 | 0.30 | 0.30 | 96 | 1009.6 |
| 20260830041702 | 71 | 128 | 0.0 | 0.0 | 0.00 | 0.30 | 0.30 | 95 | 1009.7 |
| 20260830041202 | 71 | 128 | 0.0 | 0.0 | 0.00 | 0.30 | 0.30 | 95 | 1009.6 |
| 20260830040702 | 71 | 128 | 0.0 | 0.0 | 0.00 | 0.30 | 0.30 | 94 | 1009.8 |
| 20260830040201 | 71 | 128 | 0.0 | 0.0 | 0.00 | 0.30 | 0.30 | 94 | 1009.7 |
| 20260830035702 | 71 | 128 | 0.0 | 0.0 | 0.00 | 0.30 | 0.30 | 94 | 1009.7 |
| 20260830035201 | 71 | 128 | 0.0 | 0.0 | 0.00 | 0.30 | 0.30 | 94 | 1009.7 |
| 20260830034701 | 72 | 128 | 0.0 | 0.0 | 0.00 | 0.30 | 0.30 | 94 | 1009.7 |
| 20260830034202 | 72 | 128 | 0.0 | 0.0 | 0.00 | 0.30 | 0.30 | 93 | 1009.7 |
| 20260830033702 | 72 | 128 | 0.0 | 0.0 | 0.00 | 0.30 | 0.30 | 93 | 1009.8 |
| 20260830033201 | 72 | 128 | 0.0 | 0.0 | 0.00 | 0.30 | 0.30 | 92 | 1009.9 |
| 20260830032702 | 72 | 128 | 0.0 | 0.0 | 0.00 | 0.30 | 0.30 | 92 | 1009.7 |
| 20260830032202 | 72 | 128 | 0.0 | 0.0 | 0.00 | 0.30 | 0.30 | 92 | 1009.7 |
| 20260830031702 | 72 | 128 | 0.0 | 0.0 | 0.00 | 0.30 | 0.30 | 91 | 1009.8 |
| 20260830031201 | 72 | 128 | 0.0 | 0.0 | 0.00 | 0.30 | 0.30 | 91 | 1009.9 |
| 20260830030701 | 72 | 128 | 0.0 | 0.0 | 0.00 | 0.30 | 0.30 | 91 | 1009.9 |
| 20260830030202 | 72 | 128 | 0.0 | 0.0 | 0.00 | 0.30 | 0.30 | 91 | 1009.8 |
| 20260830025702 | 72 | 128 | 0.0 | 0.0 | 0.00 | 0.30 | 0.30 | 90 | 1009.7 |
| 20260830025201 | 72 | 128 | 0.0 | 0.0 | 0.00 | 0.30 | 0.30 | 90 | 1009.7 |
| 20260830024702 | 72 | 128 | 0.0 | 0.0 | 0.00 | 0.30 | 0.30 | 90 | 1009.7 |
| 20260830024202 | 73 | 113 | 0.0 | 0.0 | 0.00 | 0.30 | 0.30 | 90 | 1009.5 |
| 20260830023201 | 73 | 127 | 0.0 | 0.0 | 0.00 | 0.30 | 0.30 | 88 | 1009.4 |
| 20260830022701 | 73 | 127 | 0.0 | 0.0 | 0.00 | 0.30 | 0.30 | 88 | 1009.4 |
| 20260830022202 | 73 | 134 | 0.0 | 0.0 | 0.00 | 0.30 | 0.30 | 88 | 1009.5 |
| 20260830021702 | 73 | 105 | 0.0 | 0.0 | 0.00 | 0.30 | 0.30 | 87 | 1009.5 |
| 20260830021202 | 73 | 95 | 0.0 | 0.0 | 0.00 | 0.30 | 0.30 | 86 | 1009.5 |
| 20260830020702 | 73 | 95 | 0.0 | 0.0 | 0.00 | 0.30 | 0.30 | 86 | 1009.4 |
| 20260830020202 | 73 | 94 | 0.0 | 0.0 | 0.00 | 0.30 | 0.30 | 86 | 1009.3 |
| 20260830015702 | 73 | 94 | 0.0 | 0.0 | 0.00 | 0.30 | 0.30 | 85 | 1009.3 |
| 20260830015201 | 73 | 110 | 0.0 | 0.0 | 0.00 | 0.30 | 0.30 | 85 | 1009.3 |
| 20260830014703 | 74 | 111 | 0.0 | 0.0 | 0.00 | 0.30 | 0.30 | 84 | 1009.3 |
| 20260830014202 | 74 | 112 | 0.0 | 0.0 | 0.00 | 0.30 | 0.30 | 84 | 1009.3 |
| 20260830013701 | 74 | 112 | 0.0 | 0.0 | 0.00 | 0.30 | 0.30 | 83 | 1009.2 |
| 20260830013202 | 74 | 112 | 0.0 | 0.0 | 0.00 | 0.30 | 0.30 | 83 | 1009.2 |
| 20260830012702 | 74 | 112 | 0.0 | 0.0 | 0.00 | 0.30 | 0.30 | 82 | 1009.1 |
| 20260830012201 | 74 | 112 | 0.0 | 0.0 | 0.00 | 0.30 | 0.30 | 82 | 1009.1 |
| 20260830011702 | 74 | 112 | 0.0 | 0.0 | 0.00 | 0.30 | 0.30 | 82 | 1009.0 |
| 20260830011202 | 74 | 112 | 0.0 | 0.0 | 0.00 | 0.30 | 0.30 | 81 | 1008.9 |
| 20260830010702 | 74 | 112 | 0.0 | 0.0 | 0.00 | 0.30 | 0.30 | 80 | 1008.9 |